Location: Axtheid
(49.6213°N, 11.8205°E)
Time: 12:05:36
(UTC+00:00)

CZ-4B R/B - Pass Details

Date: 24 January 2021
Orbit: 387 x 458 km, 97.6° (Epoch: 25 February)

Event Time Altitude Azimuth Distance (km) Brightness Sun altitude
Exits shadow 18:18:55 - 352° (N) 1,851 4.6 -23.0°
Reaches altitude 10° 18:19:43 10° 345° (NNW) 1,577 4.3 -23.2°
Maximum altitude 18:22:16 20° 295° (WNW) 1,069 4.0 -23.6°
Drops below altitude 10° 18:24:46 10° 246° (WSW) 1,537 5.0 -24.0°
Sets 18:27:04 0° 229° (SW) 2,383 5.8 -24.3°
